This is the latest recevied weather packets stored in our database for station/object DL3MEB-6. If no packets are shown the sender has not sent any weather packets the latest 10 day(s).
| Time | Temp. | Humidity | Pressure | Rain* | Wind** | Luminosity | Snow |
|---|---|---|---|---|---|---|---|
| 1787676968 | 17.22° C | 81% | 1014.7 hPa | 0 mm | - | - | - |
| 1787675156 | 17.22° C | 83% | 1014.7 hPa | 0 mm | - | - | - |
| 1787674254 | 17.22° C | 83% | 1014.6 hPa | 0 mm | - | - | - |
| 1787673343 | 17.22° C | 81% | 1014.6 hPa | 0 mm | - | - | - |
| 1787672442 | 17.22° C | 81% | 1014.6 hPa | 0 mm | - | - | - |
| 1787671533 | 17.22° C | 82% | 1014.6 hPa | 0 mm | - | - | - |
| 1787670631 | 17.22° C | 84% | 1014.7 hPa | 0 mm | - | - | - |
| 1787669734 | 16.67° C | 89% | 1014.7 hPa | 0 mm | - | - | - |
| 1787668826 | 16.11° C | 89% | 1014.6 hPa | 0 mm | - | - | - |
| 1787667920 | 16.11° C | 89% | 1014.6 hPa | 0 mm | - | - | - |
| 1787667009 | 16.11° C | 91% | 1014.5 hPa | 0 mm | - | - | - |
| 1787666096 | 15.56° C | 91% | 1014.3 hPa | 0 mm | - | - | - |
| 1787665183 | 15.56° C | 92% | 1014.3 hPa | 0 mm | - | - | - |
| 1787664280 | 15.56° C | 93% | 1014.3 hPa | 0 mm | - | - | - |
| 1787663369 | 15.56° C | 93% | 1014.1 hPa | 0 mm | - | - | - |
| 1787661554 | 15° C | 94% | 1013.9 hPa | 0 mm | - | - | - |
| 1787660711 | 15° C | 94% | 1013.7 hPa | 1.02 mm | - | - | - |
| 1787660646 | 15° C | 94% | 1013.7 hPa | 1.02 mm | - | - | - |
| 1787658837 | 15° C | 92% | 1013.5 hPa | 2.29 mm | - | - | - |
| 1787657028 | 15° C | 90% | 1013.5 hPa | 0 mm | - | - | - |
| 1787656117 | 15° C | 90% | 1013.4 hPa | 0 mm | - | - | - |
| 1787655210 | 15° C | 89% | 1013.3 hPa | 0 mm | - | - | - |
| 1787654302 | 15° C | 89% | 1013.2 hPa | 0 mm | - | - | - |
| 1787653399 | 15° C | 88% | 1012.9 hPa | 0 mm | - | - | - |
| 1787652488 | 15.56° C | 88% | 1012.8 hPa | 0 mm | - | - | - |
* Rain latest hour (hover to see other rain measurements)
** Current wind speed in m/s (hover to see current wind gust speed)